Погода в Новотроицком

Украина / Херсонская область     46°21′15″N   34°20′10″E
темп.,
°C
ветер,
м/с
пор.,
м/с
влажн.,
%
обл.,
%
осадки,
мм/ч
давл.,
гПа
погр.,
м
19 апреля, пн
пн1900:00+9в2387100 0.1 1016150
03:00+9в2286100 0.1 1016107
06:00+9св2391100 0.4 1015117
09:00+10в338399 0.4 1016217
12:00+12юв227098 0.0 1015683
15:00+12ююв327399 0.0 1014602
18:00+10ююв558397 0.0 1013199
21:00+9вюв3486100 0.0 1013122
20 апреля, вт
вт2000:00+10в4883100 0.0 1010262
03:00+9всв5992100 2.4 1007309
06:00+8всв5996100 7.3 1005288
09:00+9вюв699897 9.4 1002280
12:00+11ююз9128183 0.8 1001685
15:00+11зюз5785100 1.0 999475
18:00+9зсз111587100 0.3 1003891
21:00+9з81383100 0.6 1008733
21 апреля, ср
ср2100:00+9зюз6118938 0.1 1010242
03:00+8зюз6990100 0.1 1012190
06:00+7з4886100 0.0 1014143
09:00+10зюз3570100 0.0 1016285
12:00+12юз576490 0.1 1017709
15:00+14зюз685161 0.1 1017902
18:00+12зюз5763100 0.1 1018411
21:00+10юз368875 0.8 1019111
22 апреля, чт
чт2200:00+8юз48905 0.0 1020164
03:00+8юз46935 0.0 1020127
06:00+7ююз46934 0.0 1020120
09:00+11юз46792 0.0 1021300
12:00+14зюз56645 0.2 1022783
15:00+15зюз575653 0.4 10211091
18:00+13зюз46676 0.1 1022439
21:00+10юз33810 0.1 102345
23 апреля, пт
пт2300:00+9ююз35840 0.0 102274
03:00+8ююз33880 0.0 102249
06:00+8ю33901 0.0 102238
09:00+11ю45730 0.0 1022255
12:00+13ююв55610 0.0 1021547
15:00+16юв43515 0.0 1019884
18:00+14юв45622 0.0 1019313
21:00+10вюв367952 0.0 101898